Location: Utrecht
(52.0907°N, 5.1214°E)
Time: 07:21:12
(UTC+02:00)

SPROUT - Pass Details

Date: 30 June 2022
Orbit: 588 x 598 km, 97.9° (Epoch: 18 August)

Event Time Altitude Azimuth Distance (km) Brightness Sun altitude
Exits shadow 00:32:57 - 104° (ESE) 2,605 ? -13.2°
Reaches altitude 10° 00:35:34 10° 80° (E) 1,922 ? -13.3°
Maximum altitude 00:37:23 13° 54° (NE) 1,755 ? -13.4°
Drops below altitude 10° 00:39:12 10° 28° (NNE) 1,929 ? -13.4°
Sets 00:42:29 0° 0° (N) 2,838 ? -13.6°
